Home   Weather   Adelaide   Past weeks

Flag for Australia Past Weather in Adelaide, South Australia, Australia — Yesterday and Last 2 Weeks

Now
73 °F

Scattered clouds.


Feels Like: 77 °F
Forecast: 55 / 75 °F
Wind: 13 mph from South

Location: Adelaide Airport

Current Time: Jan 24, 2017 at 5:57:25 pm

Latest Report: Jan 24, 2017 at 5:00 pm


Visibility: N/A

Pressure: 30.04 "Hg

Humidity: 41%

Dew Point: 48 °F

Location of AdelaideLocation

Past Weather in Adelaide — Graph

°F

Adelaide Temperature Yesterday

Maximum temperature yesterday: 84 °F (at 10:00 am)
Minimum temperature yesterday: 70 °F (at 11:00 pm)
Average temperature yesterday: 76 °F

High & Low Weather Summary for the Past Weeks

 TemperatureHumidityPressure
High102 °F (Jan 17, 1:30 pm)100% (Jan 20, 12:25 am)30.12 "Hg (Jan 20, 12:25 am)
Low57 °F (Jan 15, 6:00 am)7% (Jan 17, 2:30 pm)29.36 "Hg (Jan 13, 3:30 am)
Average72 °F59%29.82 "Hg
* Reported Jan 9 4:30 pm — Jan 24 5:00 pm, Adelaide, Weather by CustomWeather, © 2017

Note: Actual official high and low records may vary slightly from our data, if they occured in-between our weather recording intervals... More about our weather records

Advertising

Adelaide Weather History for the Previous 24 Hours

Scroll right to see more
 ConditionsComfort  
Time TempWeatherWind HumidityBarometerVisibility
5:00 pm
Tue, Jan 24
73 °FScattered clouds.13 mph41%30.04 "HgN/A
4:30 pm75 °FScattered clouds.17 mph41%30.04 "HgN/A
4:00 pm75 °FScattered clouds.16 mph41%30.04 "HgN/A
3:30 pm73 °FScattered clouds.14 mph41%30.04 "HgN/A
3:05 pm73 °FScattered clouds.20 mph50%30.04 "HgN/A
2:49 pm73 °FPassing clouds.20 mph47%30.04 "HgN/A
2:30 pm72 °FPassing clouds.18 mph50%30.04 "HgN/A
2:00 pm73 °FPassing clouds.20 mph47%30.04 "HgN/A
1:30 pm72 °FPassing clouds.20 mph47%30.04 "HgN/A
1:00 pm72 °FPassing clouds.17 mph50%30.07 "HgN/A
12:30 pm72 °FPassing clouds.18 mph53%30.07 "HgN/A
12:00 pm72 °FPassing clouds.14 mph50%30.07 "HgN/A
11:30 am70 °FScattered clouds.12 mph53%30.04 "HgN/A
11:00 am72 °FScattered clouds.15 mph50%30.04 "HgN/A
10:30 am70 °FPassing clouds.12 mph57%30.04 "HgN/A
10:00 am68 °FPassing clouds.12 mph60%30.04 "HgN/A
9:30 am68 °FPassing clouds.12 mph60%30.04 "HgN/A
9:00 am68 °FPassing clouds.10 mph64%30.04 "HgN/A
8:30 am68 °FPassing clouds.8 mph64%30.01 "HgN/A
8:00 am66 °FPassing clouds.7 mph68%30.01 "HgN/A
7:30 am64 °FPassing clouds.7 mph73%29.98 "HgN/A
7:00 am63 °FPassing clouds.6 mph77%29.98 "HgN/A
6:30 am63 °FPassing clouds.8 mph77%29.95 "HgN/A
6:00 am63 °FPassing clouds.10 mph73%29.95 "HgN/A
5:30 am64 °FPassing clouds.14 mph73%29.92 "HgN/A
5:00 am66 °FPassing clouds.17 mph73%29.89 "HgN/A
4:30 am66 °FPassing clouds.9 mph73%29.89 "HgN/A
4:00 am68 °FPassing clouds.15 mph69%29.89 "HgN/A
3:30 am68 °FPassing clouds.13 mph73%29.86 "HgN/A
3:00 am68 °FPassing clouds.15 mph73%29.86 "HgN/A
2:30 am68 °FPassing clouds.20 mph73%29.86 "HgN/A
2:00 am68 °FPassing clouds.18 mph78%29.83 "HgN/A
1:30 am68 °FPassing clouds.17 mph78%29.86 "HgN/A
1:00 am68 °FPassing clouds.15 mph83%29.83 "HgN/A
12:30 am70 °FPassing clouds.17 mph83%29.83 "Hg6 mi
12:00 am70 °FPassing clouds.22 mph88%29.83 "Hg6 mi
11:30 pm
Mon, Jan 23
70 °FPassing clouds.22 mph88%29.80 "Hg6 mi
11:00 pm70 °FPassing clouds.23 mph88%29.80 "HgN/A
10:30 pm72 °FDrizzle. Mostly cloudy.15 mph100%29.77 "Hg2 mi
10:00 pm73 °FDrizzle. Mostly cloudy.14 mph94%29.77 "Hg3 mi
9:30 pm73 °FDrizzle. Low clouds.8 mph94%29.74 "Hg3 mi
9:15 pm73 °FDrizzle. Overcast.9 mph94%29.74 "Hg3 mi
9:00 pm75 °FPassing clouds.9 mph89%29.74 "HgN/A
8:30 pm75 °FPartly sunny.9 mph89%29.74 "HgN/A
8:00 pm75 °FPartly sunny.7 mph89%29.71 "HgN/A
7:30 pm75 °FBroken clouds.8 mph89%29.68 "HgN/A
7:00 pm75 °FPartly sunny.9 mph89%29.68 "HgN/A
6:30 pm75 °FBroken clouds.9 mph89%29.65 "HgN/A
6:00 pm75 °FBroken clouds.6 mph89%29.65 "HgN/A
5:30 pm73 °FScattered showers. Partly sunny.8 mph94%29.65 "HgN/A
5:24 pm73 °FSprinkles. Partly sunny.7 mph89%29.65 "Hg4 mi
5:00 pm73 °FRain showers. Partly sunny.6 mph89%29.68 "Hg2 mi
Weather by CustomWeather, © 2017

See weather overviewHow to use our weather pages